Time,TemperatureF,DewpointF,PressureIn,WindDirection,WindDirectionDegrees,WindSpeedMPH,WindSpeedGustMPH,Humidity,HourlyPrecipIn,Conditions,Clouds,dailyrainin,SoftwareType,DateUTC
2013-04-23 00:00:00,42.8,35.7,30.51,ENE,75,0.0,86.5,76,0.60,,,0.00,VWS V14.01,2013-04-23 04:00:00,
2013-04-23 00:01:00,42.8,35.7,30.52,ENE,75,0.0,86.5,76,0.60,,,0.00,VWS V14.01,2013-04-23 04:01:00,
2013-04-23 00:02:00,41.6,36.1,30.49,NE,49,0.0,86.5,80,0.60,,,0.00,VWS V14.01,2013-04-23 04:02:00,
2013-04-23 00:03:00,41.6,36.1,30.49,NE,49,0.0,86.5,80,0.60,,,0.00,VWS V14.01,2013-04-23 04:03:00,
2013-04-23 00:04:00,42.7,35.7,30.51,ENE,75,0.0,86.5,76,0.60,,,0.00,VWS V14.01,2013-04-23 04:04:00,
2013-04-23 00:05:00,41.4,35.8,30.49,NE,49,0.0,86.5,80,0.60,,,0.00,VWS V14.01,2013-04-23 04:05:00,
2013-04-23 00:06:00,41.5,35.8,30.49,NE,49,0.0,86.5,80,0.60,,,0.00,VWS V14.01,2013-04-23 04:06:00,
2013-04-23 00:07:00,41.4,35.8,30.49,NE,49,0.0,86.5,80,0.60,,,0.00,VWS V14.01,2013-04-23 04:07:00,
2013-04-23 00:08:00,41.4,35.8,30.49,NE,49,0.0,86.5,80,0.60,,,0.00,VWS V14.01,2013-04-23 04:08:00,
2013-04-23 00:09:00,42.5,35.7,30.51,ENE,75,0.0,86.5,77,0.60,,,0.00,VWS V14.01,2013-04-23 04:09:00,
2013-04-23 00:10:00,41.3,35.7,30.49,NE,49,0.0,86.5,80,0.60,,,0.00,VWS V14.01,2013-04-23 04:10:00,
2013-04-23 00:11:00,41.4,35.8,30.49,NE,49,0.0,86.5,80,0.60,,,0.00,VWS V14.01,2013-04-23 04:11:00,
2013-04-23 00:13:00,41.3,35.7,30.49,NE,49,0.0,86.5,80,0.60,,,0.00,VWS V14.01,2013-04-23 04:13:00,
2013-04-23 00:14:00,42.4,35.8,30.51,East,90,0.0,86.5,77,0.60,,,0.00,VWS V14.01,2013-04-23 04:14:00,
2013-04-23 00:15:00,41.3,35.9,30.49,NE,49,0.0,86.5,81,0.60,,,0.00,VWS V14.01,2013-04-23 04:15:00,
2013-04-23 00:16:00,41.3,35.8,30.49,NE,49,0.0,86.5,81,0.60,,,0.00,VWS V14.01,2013-04-23 04:16:00,
2013-04-23 00:17:00,41.2,35.8,30.49,NE,49,0.0,86.5,81,0.60,,,0.00,VWS V14.01,2013-04-23 04:17:00,
2013-04-23 00:18:00,42.4,36.3,30.51,NNE,13,1.2,86.5,79,0.60,,,0.00,VWS V14.01,2013-04-23 04:18:00,
2013-04-23 00:19:00,41.2,35.8,30.49,NE,49,0.0,86.5,81,0.60,,,0.00,VWS V14.01,2013-04-23 04:19:00,
2013-04-23 00:20:00,41.2,35.8,30.49,NE,49,0.0,86.5,81,0.60,,,0.00,VWS V14.01,2013-04-23 04:20:00,
2013-04-23 00:21:00,41.2,35.7,30.49,NE,49,0.0,86.5,81,0.60,,,0.00,VWS V14.01,2013-04-23 04:21:00,
2013-04-23 00:22:00,41.1,35.6,30.49,NE,49,0.0,86.5,81,0.60,,,0.00,VWS V14.01,2013-04-23 04:22:00,
2013-04-23 00:23:00,42.2,36.0,30.50,NNE,13,0.0,86.5,79,0.60,,,0.00,VWS V14.01,2013-04-23 04:23:00,
2013-04-23 00:25:00,41.1,35.6,30.49,NE,49,0.0,86.5,81,0.60,,,0.00,VWS V14.01,2013-04-23 04:25:00,
2013-04-23 00:26:00,41.1,35.6,30.49,NE,49,0.0,86.5,81,0.60,,,0.00,VWS V14.01,2013-04-23 04:26:00,
2013-04-23 00:27:00,41.1,35.7,30.49,NE,49,0.0,86.5,81,0.60,,,0.00,VWS V14.01,2013-04-23 04:27:00,
2013-04-23 00:28:00,42.2,36.1,30.50,NNE,25,0.0,86.5,79,0.60,,,0.00,VWS V14.01,2013-04-23 04:28:00,
2013-04-23 00:29:00,41.1,35.7,30.49,NE,49,0.0,86.5,81,0.60,,,0.00,VWS V14.01,2013-04-23 04:29:00,
2013-04-23 00:31:00,41.0,35.7,30.49,NE,49,0.0,86.5,81,0.60,,,0.00,VWS V14.01,2013-04-23 04:31:00,
2013-04-23 00:32:00,41.0,35.7,30.49,NE,49,0.0,86.5,81,0.60,,,0.00,VWS V14.01,2013-04-23 04:32:00,
2013-04-23 00:33:00,41.0,35.7,30.48,NE,49,0.0,86.5,81,0.60,,,0.00,VWS V14.01,2013-04-23 04:33:00,
2013-04-23 00:34:00,42.1,36.1,30.50,NNE,25,0.0,86.5,79,0.60,,,0.00,VWS V14.01,2013-04-23 04:34:00,
2013-04-23 00:35:00,41.0,35.8,30.48,NE,49,0.0,86.5,81,0.60,,,0.00,VWS V14.01,2013-04-23 04:35:00,
2013-04-23 00:36:00,41.0,35.9,30.48,NE,49,0.0,86.5,82,0.60,,,0.00,VWS V14.01,2013-04-23 04:36:00,
2013-04-23 00:37:00,40.9,35.8,30.48,NE,49,0.0,86.5,82,0.60,,,0.00,VWS V14.01,2013-04-23 04:37:00,
2013-04-23 00:38:00,40.9,35.8,30.48,NE,49,0.0,86.5,82,0.60,,,0.00,VWS V14.01,2013-04-23 04:38:00,
2013-04-23 00:39:00,41.9,35.8,30.50,NNE,25,0.0,86.5,79,0.60,,,0.00,VWS V14.01,2013-04-23 04:39:00,
2013-04-23 00:40:00,40.8,35.7,30.48,NE,49,0.0,86.5,82,0.60,,,0.00,VWS V14.01,2013-04-23 04:40:00,
2013-04-23 00:41:00,40.8,35.7,30.48,NE,49,0.0,86.5,82,0.60,,,0.00,VWS V14.01,2013-04-23 04:41:00,
2013-04-23 00:42:00,40.7,35.6,30.48,NE,49,0.0,86.5,82,0.60,,,0.00,VWS V14.01,2013-04-23 04:42:00,
2013-04-23 00:43:00,40.7,35.6,30.48,NE,49,0.0,86.5,82,0.60,,,0.00,VWS V14.01,2013-04-23 04:43:00,
2013-04-23 00:44:00,41.8,35.9,30.50,NNE,25,0.0,86.5,79,0.60,,,0.00,VWS V14.01,2013-04-23 04:44:00,
2013-04-23 00:45:00,40.7,35.7,30.48,NE,49,0.0,86.5,82,0.60,,,0.00,VWS V14.01,2013-04-23 04:45:00,
2013-04-23 00:46:00,40.6,35.5,30.48,NE,49,0.0,86.5,82,0.60,,,0.00,VWS V14.01,2013-04-23 04:46:00,
2013-04-23 00:48:00,40.6,35.5,30.48,NE,49,0.0,86.5,82,0.60,,,0.00,VWS V14.01,2013-04-23 04:48:00,
2013-04-23 00:49:00,41.8,36.0,30.49,NE,49,3.1,86.5,80,0.60,,,0.00,VWS V14.01,2013-04-23 04:49:00,
2013-04-23 00:50:00,40.6,35.5,30.48,NE,49,0.0,86.5,82,0.60,,,0.00,VWS V14.01,2013-04-23 04:50:00,
2013-04-23 00:51:00,40.6,35.5,30.48,NE,49,0.0,86.5,82,0.60,,,0.00,VWS V14.01,2013-04-23 04:51:00,
2013-04-23 00:52:00,40.6,35.5,30.48,NE,49,0.0,86.5,82,0.60,,,0.00,VWS V14.01,2013-04-23 04:52:00,
2013-04-23 00:54:00,40.6,35.5,30.47,NE,49,0.0,86.5,82,0.60,,,0.00,VWS V14.01,2013-04-23 04:54:00,
2013-04-23 00:55:00,41.7,35.9,30.49,NE,49,0.0,86.5,80,0.60,,,0.00,VWS V14.01,2013-04-23 04:55:00,
2013-04-23 00:56:00,40.5,35.4,30.47,NE,49,0.0,86.5,82,0.60,,,0.00,VWS V14.01,2013-04-23 04:56:00,
2013-04-23 00:57:00,40.5,35.4,30.47,NE,49,0.0,86.5,82,0.60,,,0.00,VWS V14.01,2013-04-23 04:57:00,
2013-04-23 00:58:00,40.5,35.4,30.47,NE,49,0.0,86.5,82,0.60,,,0.00,VWS V14.01,2013-04-23 04:58:00,
2013-04-23 00:59:00,40.5,35.4,30.47,NE,49,0.0,86.5,82,0.60,,,0.00,VWS V14.01,2013-04-23 04:59:00,
2013-04-23 01:01:00,40.5,35.4,30.47,NE,49,0.0,86.5,82,0.60,,,0.00,VWS V14.01,2013-04-23 05:01:00,
2013-04-23 01:02:00,40.4,35.3,30.47,NE,49,0.0,86.5,82,0.60,,,0.00,VWS V14.01,2013-04-23 05:02:00,
2013-04-23 01:03:00,40.4,35.4,30.47,NE,49,0.0,86.5,82,0.60,,,0.00,VWS V14.01,2013-04-23 05:03:00,
2013-04-23 01:04:00,40.4,35.5,30.47,NE,49,0.0,86.5,83,0.60,,,0.00,VWS V14.01,2013-04-23 05:04:00,
2013-04-23 01:05:00,40.4,35.5,30.47,NE,49,0.0,86.5,83,0.60,,,0.00,VWS V14.01,2013-04-23 05:05:00,
2013-04-23 01:06:00,40.4,35.5,30.47,NE,49,0.0,86.5,83,0.60,,,0.00,VWS V14.01,2013-04-23 05:06:00,
2013-04-23 01:07:00,40.4,35.5,30.47,NE,49,0.0,86.5,83,0.60,,,0.00,VWS V14.01,2013-04-23 05:07:00,
2013-04-23 01:08:00,40.4,35.5,30.47,NE,49,0.0,86.5,83,0.60,,,0.00,VWS V14.01,2013-04-23 05:08:00,
2013-04-23 01:09:00,40.3,35.5,30.47,NE,49,0.0,86.5,83,0.60,,,0.00,VWS V14.01,2013-04-23 05:09:00,
2013-04-23 01:10:00,40.3,35.5,30.47,NE,49,0.0,86.5,83,0.60,,,0.00,VWS V14.01,2013-04-23 05:10:00,
2013-04-23 01:11:00,40.3,35.4,30.47,ESE,114,3.3,86.5,83,0.60,,,0.00,VWS V14.01,2013-04-23 05:11:00,
2013-04-23 01:12:00,40.3,35.3,30.47,ESE,110,0.0,86.5,82,0.60,,,0.00,VWS V14.01,2013-04-23 05:12:00,
2013-04-23 01:13:00,40.3,35.4,30.47,ENE,58,3.4,86.5,83,0.60,,,0.00,VWS V14.01,2013-04-23 05:13:00,
2013-04-23 01:14:00,40.3,35.3,30.47,ENE,60,0.0,86.5,82,0.60,,,0.00,VWS V14.01,2013-04-23 05:14:00,
2013-04-23 01:15:00,40.2,35.2,30.47,East,91,5.0,86.5,82,0.60,,,0.00,VWS V14.01,2013-04-23 05:15:00,
2013-04-23 01:16:00,40.3,35.4,30.47,NE,38,4.6,86.5,82,0.60,,,0.00,VWS V14.01,2013-04-23 05:16:00,
2013-04-23 01:17:00,40.2,35.2,30.47,East,98,0.0,86.5,82,0.60,,,0.00,VWS V14.01,2013-04-23 05:17:00,
2013-04-23 01:18:00,40.2,35.1,30.47,East,98,0.0,86.5,82,0.60,,,0.00,VWS V14.01,2013-04-23 05:18:00,
2013-04-23 01:19:00,40.2,35.1,30.47,East,98,0.0,86.5,82,0.60,,,0.00,VWS V14.01,2013-04-23 05:19:00,
2013-04-23 01:20:00,40.2,35.1,30.47,ESE,115,6.6,86.5,82,0.60,,,0.00,VWS V14.01,2013-04-23 05:20:00,
2013-04-23 01:23:00,40.1,35.0,30.46,East,82,2.4,86.5,82,0.60,,,0.00,VWS V14.01,2013-04-23 05:23:00,
2013-04-23 01:24:00,40.1,34.9,30.46,SSE,148,3.2,86.5,82,0.60,,,0.00,VWS V14.01,2013-04-23 05:24:00,
2013-04-23 01:25:00,40.1,35.0,30.46,SSE,148,0.0,86.5,82,0.60,,,0.00,VWS V14.01,2013-04-23 05:25:00,
2013-04-23 01:26:00,40.1,35.0,30.46,SSE,148,0.0,86.5,82,0.60,,,0.00,VWS V14.01,2013-04-23 05:26:00,
2013-04-23 01:27:00,40.1,35.0,30.46,East,90,0.0,86.5,82,0.60,,,0.00,VWS V14.01,2013-04-23 05:27:00,
2013-04-23 01:28:00,40.1,35.1,30.46,East,90,0.0,86.5,82,0.60,,,0.00,VWS V14.01,2013-04-23 05:28:00,
2013-04-23 01:29:00,40.1,35.0,30.46,East,90,0.0,86.5,82,0.60,,,0.00,VWS V14.01,2013-04-23 05:29:00,
2013-04-23 01:30:00,40.1,34.9,30.46,East,80,0.0,86.5,82,0.60,,,0.00,VWS V14.01,2013-04-23 05:30:00,
2013-04-23 01:31:00,40.1,34.9,30.46,East,86,2.9,86.5,81,0.60,,,0.00,VWS V14.01,2013-04-23 05:31:00,
2013-04-23 01:33:00,40.0,34.7,30.46,ENE,63,0.0,86.5,81,0.60,,,0.00,VWS V14.01,2013-04-23 05:33:00,
2013-04-23 01:34:00,40.0,34.7,30.46,NE,37,0.0,86.5,81,0.60,,,0.00,VWS V14.01,2013-04-23 05:34:00,
2013-04-23 01:36:00,39.9,34.5,30.46,NE,37,0.0,86.5,81,0.60,,,0.00,VWS V14.01,2013-04-23 05:36:00,
2013-04-23 01:37:00,39.9,34.5,30.45,NE,37,0.0,86.5,81,0.60,,,0.00,VWS V14.01,2013-04-23 05:37:00,
2013-04-23 01:38:00,39.9,34.4,30.46,NE,37,0.0,86.5,81,0.60,,,0.00,VWS V14.01,2013-04-23 05:38:00,
2013-04-23 01:39:00,39.9,34.5,30.45,ESE,110,4.3,86.5,81,0.60,,,0.00,VWS V14.01,2013-04-23 05:39:00,
2013-04-23 01:45:00,39.9,34.4,30.45,ESE,110,0.0,86.5,80,0.60,,,0.00,VWS V14.01,2013-04-23 05:45:00,
2013-04-23 01:47:00,39.9,34.3,30.45,ENE,77,0.0,86.5,80,0.60,,,0.00,VWS V14.01,2013-04-23 05:47:00,
2013-04-23 01:52:00,39.8,34.1,30.45,ENE,58,0.0,86.5,80,0.60,,,0.00,VWS V14.01,2013-04-23 05:52:00,
2013-04-23 01:53:00,39.8,34.1,30.45,ENE,58,0.0,86.5,80,0.60,,,0.00,VWS V14.01,2013-04-23 05:53:00,
2013-04-23 01:54:00,39.8,34.1,30.45,ENE,58,3.2,86.5,80,0.60,,,0.00,VWS V14.01,2013-04-23 05:54:00,
2013-04-23 01:57:00,39.7,33.9,30.45,ENE,58,0.0,86.5,79,0.60,,,0.00,VWS V14.01,2013-04-23 05:57:00,
2013-04-23 01:58:00,39.6,33.8,30.45,ENE,58,0.0,86.5,80,0.60,,,0.00,VWS V14.01,2013-04-23 05:58:00,
2013-04-23 02:03:00,39.6,33.8,30.45,East,101,0.0,86.5,80,0.60,,,0.00,VWS V14.01,2013-04-23 06:03:00,
2013-04-23 02:10:00,39.3,33.4,30.44,ENE,65,2.9,86.5,79,0.60,,,0.00,VWS V14.01,2013-04-23 06:10:00,
2013-04-23 02:17:00,39.3,33.4,30.44,ENE,62,6.6,86.5,79,0.60,,,0.00,VWS V14.01,2013-04-23 06:17:00,
2013-04-23 02:19:00,39.3,33.4,30.44,East,100,0.0,86.5,79,0.60,,,0.00,VWS V14.01,2013-04-23 06:19:00,
2013-04-23 02:30:00,40.0,34.7,30.46,East,86,0.0,86.5,81,0.60,,,0.00,VWS V14.01,2013-04-23 06:30:00,
2013-04-23 02:38:00,39.9,34.5,30.45,ESE,110,0.0,86.5,81,0.60,,,0.00,VWS V14.01,2013-04-23 06:38:00,
2013-04-23 02:46:00,39.9,34.3,30.45,NE,52,4.3,86.5,80,0.60,,,0.00,VWS V14.01,2013-04-23 06:46:00,
2013-04-23 02:53:00,39.7,33.9,30.45,ESE,108,2.4,86.5,79,0.60,,,0.00,VWS V14.01,2013-04-23 06:53:00,
2013-04-23 02:58:00,39.6,33.8,30.45,ENE,58,0.0,86.5,80,0.60,,,0.00,VWS V14.01,2013-04-23 06:58:00,
2013-04-23 03:04:00,39.5,33.7,30.45,East,94,0.0,86.5,80,0.60,,,0.00,VWS V14.01,2013-04-23 07:04:00,
2013-04-23 03:09:00,39.4,33.6,30.44,ESE,122,4.8,86.5,79,0.60,,,0.00,VWS V14.01,2013-04-23 07:09:00,
2013-04-23 03:14:00,39.3,33.4,30.44,East,91,4.7,86.5,79,0.60,,,0.00,VWS V14.01,2013-04-23 07:14:00,
2013-04-23 03:19:00,39.2,33.2,30.44,East,83,0.0,86.5,79,0.60,,,0.00,VWS V14.01,2013-04-23 07:19:00,
2013-04-23 03:24:00,39.1,33.3,30.44,ENE,60,0.0,86.5,80,0.60,,,0.00,VWS V14.01,2013-04-23 07:24:00,
2013-04-23 03:30:00,39.1,33.2,30.44,East,96,0.0,86.5,79,0.60,,,0.00,VWS V14.01,2013-04-23 07:30:00,
2013-04-23 03:35:00,39.0,33.0,30.44,ENE,72,2.9,86.5,79,0.60,,,0.00,VWS V14.01,2013-04-23 07:35:00,
2013-04-23 03:40:00,38.9,33.2,30.44,East,97,7.8,86.5,80,0.60,,,0.00,VWS V14.01,2013-04-23 07:40:00,
2013-04-23 03:45:00,38.8,33.3,30.44,SE,125,4.8,86.5,80,0.60,,,0.00,VWS V14.01,2013-04-23 07:45:00,
2013-04-23 03:50:00,38.8,33.2,30.44,North,6,0.0,86.5,80,0.60,,,0.00,VWS V14.01,2013-04-23 07:50:00,
2013-04-23 03:56:00,38.7,33.1,30.43,ENE,75,3.4,86.5,80,0.60,,,0.00,VWS V14.01,2013-04-23 07:56:00,
2013-04-23 04:01:00,38.6,32.9,30.43,East,82,0.0,86.5,80,0.60,,,0.00,VWS V14.01,2013-04-23 08:01:00,
2013-04-23 04:06:00,38.5,33.0,30.43,East,82,0.0,86.5,80,0.60,,,0.00,VWS V14.01,2013-04-23 08:06:00,
2013-04-23 04:11:00,38.5,33.0,30.43,ESE,121,4.5,86.5,80,0.60,,,0.00,VWS V14.01,2013-04-23 08:11:00,
2013-04-23 04:16:00,38.4,33.1,30.43,ESE,104,0.0,86.5,81,0.60,,,0.00,VWS V14.01,2013-04-23 08:16:00,
2013-04-23 04:22:00,38.3,33.0,30.43,NE,34,3.1,86.5,81,0.60,,,0.00,VWS V14.01,2013-04-23 08:22:00,
2013-04-23 04:27:00,38.2,32.9,30.43,ENE,75,0.0,86.5,81,0.60,,,0.00,VWS V14.01,2013-04-23 08:27:00,
2013-04-23 04:32:00,38.1,32.9,30.43,East,82,0.0,86.5,81,0.60,,,0.00,VWS V14.01,2013-04-23 08:32:00,
2013-04-23 04:37:00,38.0,32.7,30.43,East,91,0.0,86.5,81,0.60,,,0.00,VWS V14.01,2013-04-23 08:37:00,
2013-04-23 04:43:00,38.0,32.8,30.43,East,80,0.0,86.5,81,0.60,,,0.00,VWS V14.01,2013-04-23 08:43:00,
2013-04-23 04:48:00,37.8,32.7,30.43,ENE,66,0.0,86.5,82,0.60,,,0.00,VWS V14.01,2013-04-23 08:48:00,
2013-04-23 04:53:00,37.7,32.8,30.42,ENE,66,0.0,86.5,82,0.60,,,0.00,VWS V14.01,2013-04-23 08:53:00,
2013-04-23 04:58:00,37.7,32.8,30.42,East,82,3.4,86.5,82,0.60,,,0.00,VWS V14.01,2013-04-23 08:58:00,
2013-04-23 05:03:00,37.7,33.0,30.42,ENE,72,5.4,86.5,83,0.60,,,0.00,VWS V14.01,2013-04-23 09:03:00,
2013-04-23 05:09:00,37.8,33.1,30.42,ENE,68,0.0,86.5,83,0.60,,,0.00,VWS V14.01,2013-04-23 09:09:00,
2013-04-23 05:14:00,38.0,33.3,30.41,NE,39,0.0,86.5,83,0.60,,,0.00,VWS V14.01,2013-04-23 09:14:00,
2013-04-23 05:19:00,38.1,33.4,30.41,ENE,58,0.0,86.5,83,0.60,,,0.00,VWS V14.01,2013-04-23 09:19:00,
2013-04-23 05:24:00,38.1,33.4,30.41,ENE,58,0.0,86.5,83,0.60,,,0.00,VWS V14.01,2013-04-23 09:24:00,
2013-04-23 05:29:00,38.1,33.5,30.41,ENE,58,0.0,86.5,83,0.60,,,0.00,VWS V14.01,2013-04-23 09:29:00,
2013-04-23 05:35:00,38.0,33.5,30.41,ENE,58,0.0,86.5,84,0.60,,,0.00,VWS V14.01,2013-04-23 09:35:00,
2013-04-23 05:40:00,38.0,33.5,30.41,ENE,58,0.0,86.5,84,0.60,,,0.00,VWS V14.01,2013-04-23 09:40:00,
2013-04-23 05:45:00,38.0,33.5,30.41,ENE,58,0.0,86.5,84,0.60,,,0.00,VWS V14.01,2013-04-23 09:45:00,
2013-04-23 05:50:00,38.0,33.4,30.41,NE,48,0.0,86.5,83,0.60,,,0.00,VWS V14.01,2013-04-23 09:50:00,
2013-04-23 05:55:00,38.2,33.5,30.42,ENE,68,2.8,86.5,83,0.60,,,0.00,VWS V14.01,2013-04-23 09:55:00,
2013-04-23 06:01:00,38.3,33.6,30.41,NE,48,0.0,86.5,83,0.60,,,0.00,VWS V14.01,2013-04-23 10:01:00,
2013-04-23 06:06:00,38.4,33.6,30.41,NE,48,0.0,86.5,83,0.60,,,0.00,VWS V14.01,2013-04-23 10:06:00,
2013-04-23 06:11:00,38.3,33.8,30.41,NNE,13,0.0,86.5,84,0.60,,,0.00,VWS V14.01,2013-04-23 10:11:00,
2013-04-23 06:16:00,38.3,33.8,30.41,NNE,13,0.0,86.5,84,0.60,,,0.00,VWS V14.01,2013-04-23 10:16:00,
2013-04-23 06:21:00,38.3,33.8,30.41,NE,52,4.5,86.5,84,0.60,,,0.00,VWS V14.01,2013-04-23 10:21:00,
2013-04-23 06:26:00,38.5,34.0,30.41,NE,34,0.0,86.5,84,0.60,,,0.00,VWS V14.01,2013-04-23 10:26:00,
2013-04-23 06:32:00,38.5,33.9,30.41,NE,53,0.0,86.5,83,0.60,,,0.00,VWS V14.01,2013-04-23 10:32:00,
2013-04-23 06:37:00,38.6,34.1,30.41,NE,53,0.0,86.5,84,0.60,,,0.00,VWS V14.01,2013-04-23 10:37:00,
2013-04-23 06:42:00,38.6,34.0,30.41,NE,34,0.0,86.5,83,0.60,,,0.00,VWS V14.01,2013-04-23 10:42:00,
2013-04-23 06:47:00,38.8,34.2,30.41,ENE,62,0.0,86.5,84,0.60,,,0.00,VWS V14.01,2013-04-23 10:47:00,
2013-04-23 06:52:00,39.0,34.3,30.41,East,90,2.7,86.5,83,0.60,,,0.00,VWS V14.01,2013-04-23 10:52:00,
2013-04-23 06:58:00,39.2,34.3,30.41,North,10,4.8,86.5,82,0.60,,,0.00,VWS V14.01,2013-04-23 10:58:00,
2013-04-23 07:03:00,39.2,34.4,30.41,NNE,20,0.0,86.5,83,0.60,,,0.00,VWS V14.01,2013-04-23 11:03:00,
2013-04-23 07:08:00,39.1,34.3,30.41,NNE,28,0.0,86.5,83,0.60,,,0.00,VWS V14.01,2013-04-23 11:08:00,
2013-04-23 07:13:00,39.2,34.3,30.41,NE,48,3.1,86.5,82,0.60,,,0.00,VWS V14.01,2013-04-23 11:13:00,
2013-04-23 07:18:00,39.2,34.6,30.41,NE,49,0.0,86.5,83,0.60,,,0.00,VWS V14.01,2013-04-23 11:18:00,
2013-04-23 07:24:00,39.3,34.6,30.41,East,84,0.0,86.5,83,0.60,,,0.00,VWS V14.01,2013-04-23 11:24:00,
2013-04-23 07:29:00,39.3,34.5,30.41,East,84,0.0,86.5,83,0.60,,,0.00,VWS V14.01,2013-04-23 11:29:00,
2013-04-23 07:34:00,39.3,34.5,30.41,ESE,107,0.0,86.5,83,0.60,,,0.00,VWS V14.01,2013-04-23 11:34:00,
2013-04-23 07:39:00,39.3,34.5,30.41,NE,44,0.0,86.5,83,0.60,,,0.00,VWS V14.01,2013-04-23 11:39:00,
2013-04-23 07:45:00,39.4,34.6,30.41,NNE,22,0.0,86.5,83,0.60,,,0.00,VWS V14.01,2013-04-23 11:45:00,
2013-04-23 07:50:00,39.5,34.7,30.41,NNE,32,0.0,86.5,83,0.60,,,0.00,VWS V14.01,2013-04-23 11:50:00,
2013-04-23 07:55:00,39.6,34.9,30.40,NE,49,0.0,86.5,83,0.60,,,0.00,VWS V14.01,2013-04-23 11:55:00,
2013-04-23 08:01:00,39.8,34.9,30.40,NE,51,0.0,86.5,82,0.60,,,0.00,VWS V14.01,2013-04-23 12:01:00,
2013-04-23 08:07:00,40.0,35.2,30.40,ENE,59,5.2,86.5,83,0.60,,,0.00,VWS V14.01,2013-04-23 12:07:00,
2013-04-23 08:12:00,40.2,35.4,30.40,NNE,14,0.0,86.5,83,0.60,,,0.00,VWS V14.01,2013-04-23 12:12:00,
2013-04-23 08:18:00,40.4,35.7,30.40,NE,45,0.0,86.5,83,0.60,,,0.00,VWS V14.01,2013-04-23 12:18:00,
2013-04-23 08:23:00,40.7,35.8,30.39,NNE,17,5.9,86.5,82,0.60,,,0.00,VWS V14.01,2013-04-23 12:23:00,
2013-04-23 08:28:00,40.7,35.9,30.39,NE,52,0.0,86.5,83,0.60,,,0.00,VWS V14.01,2013-04-23 12:28:00,
2013-04-23 08:33:00,41.0,36.2,30.39,East,90,0.0,86.5,83,0.60,,,0.00,VWS V14.01,2013-04-23 12:33:00,
2013-04-23 08:39:00,41.2,36.3,30.39,NNE,30,0.0,86.5,83,0.60,,,0.00,VWS V14.01,2013-04-23 12:39:00,
2013-04-23 08:44:00,41.2,36.2,30.39,NE,38,0.0,86.5,82,0.60,,,0.00,VWS V14.01,2013-04-23 12:44:00,
2013-04-23 08:49:00,41.3,36.5,30.39,East,83,0.0,86.5,83,0.60,,,0.00,VWS V14.01,2013-04-23 12:49:00,
2013-04-23 08:54:00,41.3,36.5,30.39,North,10,0.0,86.5,83,0.60,,,0.00,VWS V14.01,2013-04-23 12:54:00,
2013-04-23 08:59:00,41.4,36.6,30.39,NE,38,0.0,86.5,83,0.60,,,0.00,VWS V14.01,2013-04-23 12:59:00,
2013-04-23 09:05:00,41.8,37.0,30.39,ENE,62,5.7,86.5,83,0.60,,,0.00,VWS V14.01,2013-04-23 13:05:00,
2013-04-23 09:10:00,42.2,37.1,30.38,NNE,15,0.0,86.5,82,0.60,,,0.00,VWS V14.01,2013-04-23 13:10:00,
2013-04-23 09:15:00,42.1,37.2,30.38,North,4,3.0,86.5,82,0.60,,,0.00,VWS V14.01,2013-04-23 13:15:00,
2013-04-23 09:20:00,42.1,37.3,30.38,ENE,62,4.7,86.5,83,0.60,,,0.00,VWS V14.01,2013-04-23 13:20:00,
2013-04-23 09:25:00,42.3,37.3,30.38,North,7,5.4,86.5,82,0.60,,,0.00,VWS V14.01,2013-04-23 13:25:00,
2013-04-23 09:30:00,42.3,37.5,30.38,NNE,32,0.0,86.5,83,0.60,,,0.00,VWS V14.01,2013-04-23 13:30:00,
2013-04-23 09:36:00,42.4,37.7,30.38,ENE,73,5.5,86.5,83,0.60,,,0.00,VWS V14.01,2013-04-23 13:36:00,
2013-04-23 09:41:00,42.7,37.7,30.38,NNE,24,0.0,86.5,82,0.60,,,0.00,VWS V14.01,2013-04-23 13:41:00,
2013-04-23 09:46:00,42.5,37.9,30.38,North,359,0.0,86.5,84,0.60,,,0.00,VWS V14.01,2013-04-23 13:46:00,
2013-04-23 09:51:00,42.7,37.8,30.38,NE,53,4.7,86.5,83,0.60,,,0.00,VWS V14.01,2013-04-23 13:51:00,
2013-04-23 09:56:00,42.9,38.0,30.38,NE,51,0.0,86.5,83,0.60,,,0.00,VWS V14.01,2013-04-23 13:56:00,
2013-04-23 10:02:00,43.0,37.8,30.38,ENE,65,2.6,86.5,82,0.60,,,0.00,VWS V14.01,2013-04-23 14:02:00,
2013-04-23 10:07:00,43.0,38.1,30.38,ESE,107,3.2,86.5,83,0.60,,,0.00,VWS V14.01,2013-04-23 14:07:00,
2013-04-23 10:12:00,43.5,38.8,30.38,East,98,0.0,86.5,83,0.60,,,0.00,VWS V14.01,2013-04-23 14:12:00,
2013-04-23 10:17:00,44.0,38.7,30.38,NE,55,5.8,86.5,81,0.60,,,0.00,VWS V14.01,2013-04-23 14:17:00,
2013-04-23 10:22:00,43.8,38.5,30.38,NNE,22,0.0,86.5,81,0.60,,,0.00,VWS V14.01,2013-04-23 14:22:00,
2013-04-23 10:28:00,44.0,38.6,30.38,NE,37,5.5,86.5,81,0.60,,,0.00,VWS V14.01,2013-04-23 14:28:00,
2013-04-23 10:33:00,43.8,38.5,30.38,ENE,72,4.7,86.5,82,0.60,,,0.00,VWS V14.01,2013-04-23 14:33:00,
2013-04-23 10:38:00,43.8,38.7,30.38,NNE,22,0.0,86.5,82,0.60,,,0.00,VWS V14.01,2013-04-23 14:38:00,
2013-04-23 10:43:00,44.1,38.9,30.38,ENE,77,0.0,86.5,82,0.60,,,0.00,VWS V14.01,2013-04-23 14:43:00,
2013-04-23 10:48:00,44.3,38.8,30.37,NNE,14,0.0,86.5,81,0.60,,,0.00,VWS V14.01,2013-04-23 14:48:00,
2013-04-23 10:54:00,43.7,38.6,30.37,ENE,72,3.4,86.5,82,0.60,,,0.00,VWS V14.01,2013-04-23 14:54:00,
2013-04-23 10:59:00,43.3,38.9,30.37,NE,44,0.0,86.5,84,0.60,,,0.00,VWS V14.01,2013-04-23 14:59:00,
2013-04-23 11:04:00,43.1,39.0,30.36,NE,51,2.5,86.5,85,0.60,,,0.00,VWS V14.01,2013-04-23 15:04:00,
2013-04-23 11:09:00,43.5,39.5,30.36,NE,38,0.0,86.5,86,0.60,,,0.00,VWS V14.01,2013-04-23 15:09:00,
2013-04-23 11:14:00,43.6,39.5,30.36,North,0,0.0,86.5,86,0.60,,,0.00,VWS V14.01,2013-04-23 15:14:00,
2013-04-23 11:20:00,44.0,40.2,30.36,NE,55,0.0,86.5,86,0.60,,,0.00,VWS V14.01,2013-04-23 15:20:00,
2013-04-23 11:25:00,43.9,40.2,30.36,NE,46,0.0,86.5,87,0.60,,,0.00,VWS V14.01,2013-04-23 15:25:00,
2013-04-23 11:30:00,44.4,40.5,30.36,NE,56,2.7,86.5,86,0.60,,,0.00,VWS V14.01,2013-04-23 15:30:00,
2013-04-23 11:35:00,44.1,40.3,30.35,North,1,0.0,86.5,86,0.60,,,0.00,VWS V14.01,2013-04-23 15:35:00,
2013-04-23 11:40:00,44.0,40.4,30.35,NE,41,3.4,86.5,87,0.60,,,0.00,VWS V14.01,2013-04-23 15:40:00,
2013-04-23 11:46:00,43.9,40.3,30.35,ENE,59,3.1,86.5,87,0.60,,,0.00,VWS V14.01,2013-04-23 15:46:00,
2013-04-23 11:51:00,44.0,40.7,30.35,NE,41,0.0,86.5,88,0.60,,,0.00,VWS V14.01,2013-04-23 15:51:00,
2013-04-23 11:56:00,44.0,41.0,30.34,ENE,68,0.0,86.5,89,0.60,,,0.00,VWS V14.01,2013-04-23 15:56:00,
2013-04-23 12:01:00,44.0,41.0,30.34,ENE,68,0.0,86.5,89,0.60,,,0.00,VWS V14.01,2013-04-23 16:01:00,
2013-04-23 12:06:00,44.1,41.1,30.34,NNE,22,0.0,86.5,89,0.60,,,0.00,VWS V14.01,2013-04-23 16:06:00,
2013-04-23 12:12:00,44.2,41.5,30.33,NNE,20,0.0,86.5,90,0.60,,,0.00,VWS V14.01,2013-04-23 16:12:00,
2013-04-23 12:17:00,44.3,41.6,30.33,NNE,20,0.0,86.5,90,0.60,,,0.00,VWS V14.01,2013-04-23 16:17:00,
2013-04-23 12:22:00,44.7,41.6,30.33,NNE,31,3.3,86.5,89,0.60,,,0.00,VWS V14.01,2013-04-23 16:22:00,
2013-04-23 12:27:00,44.9,41.3,30.33,NE,39,0.0,86.5,87,0.60,,,0.00,VWS V14.01,2013-04-23 16:27:00,
2013-04-23 12:33:00,44.2,41.1,30.33,NNE,27,0.0,86.5,89,0.60,,,0.00,VWS V14.01,2013-04-23 16:33:00,
2013-04-23 12:38:00,44.1,41.2,30.33,NNE,13,0.0,86.5,90,0.60,,,0.00,VWS V14.01,2013-04-23 16:38:00,
2013-04-23 12:43:00,44.8,41.7,30.32,ENE,63,5.5,86.5,89,0.60,,,0.00,VWS V14.01,2013-04-23 16:43:00,
2013-04-23 12:48:00,45.1,41.1,30.32,ENE,59,0.0,86.5,86,0.60,,,0.00,VWS V14.01,2013-04-23 16:48:00,
2013-04-23 12:53:00,45.1,41.3,30.32,ENE,62,4.7,86.5,86,0.60,,,0.00,VWS V14.01,2013-04-23 16:53:00,
2013-04-23 12:59:00,45.1,41.3,30.31,NE,45,0.0,86.5,86,0.60,,,0.00,VWS V14.01,2013-04-23 16:59:00,
2013-04-23 13:04:00,45.5,41.5,30.31,North,6,0.0,86.5,86,0.60,,,0.00,VWS V14.01,2013-04-23 17:04:00,
2013-04-23 13:09:00,45.4,41.4,30.31,NNE,17,0.0,86.5,86,0.60,,,0.00,VWS V14.01,2013-04-23 17:09:00,
2013-04-23 13:14:00,45.7,41.6,30.31,NNE,18,2.5,86.5,86,0.60,,,0.00,VWS V14.01,2013-04-23 17:14:00,
2013-04-23 13:20:00,46.2,41.7,30.31,NNE,32,4.2,86.5,84,0.60,,,0.00,VWS V14.01,2013-04-23 17:20:00,
2013-04-23 13:25:00,46.8,41.8,30.30,North,4,0.0,86.5,83,0.60,,,0.00,VWS V14.01,2013-04-23 17:25:00,
2013-04-23 13:30:00,47.1,41.6,30.30,NE,53,4.5,86.5,81,0.60,,,0.00,VWS V14.01,2013-04-23 17:30:00,
2013-04-23 13:36:00,47.5,41.7,30.29,NE,45,3.2,86.5,80,0.60,,,0.00,VWS V14.01,2013-04-23 17:36:00,
2013-04-23 13:41:00,47.9,41.5,30.29,NNE,21,4.5,86.5,78,0.60,,,0.00,VWS V14.01,2013-04-23 17:41:00,
2013-04-23 13:46:00,47.9,41.5,30.28,NE,41,0.0,86.5,78,0.60,,,0.00,VWS V14.01,2013-04-23 17:46:00,
2013-04-23 13:52:00,47.9,41.3,30.28,NE,44,4.6,86.5,78,0.60,,,0.00,VWS V14.01,2013-04-23 17:52:00,
2013-04-23 13:57:00,47.9,41.5,30.28,NE,53,0.0,86.5,78,0.60,,,0.00,VWS V14.01,2013-04-23 17:57:00,
2013-04-23 14:03:00,48.2,41.3,30.28,ENE,68,5.0,86.5,77,0.60,,,0.00,VWS V14.01,2013-04-23 18:03:00,
2013-04-23 14:08:00,48.4,41.2,30.28,NNE,15,0.0,86.5,76,0.60,,,0.00,VWS V14.01,2013-04-23 18:08:00,
2013-04-23 14:13:00,48.6,41.2,30.28,NNE,15,0.0,86.5,76,0.60,,,0.00,VWS V14.01,2013-04-23 18:13:00,
2013-04-23 14:19:00,48.1,41.0,30.28,NE,37,0.0,86.5,76,0.60,,,0.00,VWS V14.01,2013-04-23 18:19:00,
2013-04-23 14:24:00,47.9,41.1,30.28,NE,37,0.0,86.5,77,0.60,,,0.00,VWS V14.01,2013-04-23 18:24:00,
2013-04-23 14:29:00,47.5,41.3,30.27,NNE,22,0.0,86.5,79,0.60,,,0.00,VWS V14.01,2013-04-23 18:29:00,
2013-04-23 14:34:00,47.6,41.2,30.27,NNE,22,0.0,86.5,78,0.60,,,0.00,VWS V14.01,2013-04-23 18:34:00,
2013-04-23 14:39:00,48.1,41.7,30.27,NNE,22,0.0,86.5,78,0.60,,,0.00,VWS V14.01,2013-04-23 18:39:00,
2013-04-23 14:45:00,47.9,41.2,30.27,NNE,22,0.0,86.5,78,0.60,,,0.00,VWS V14.01,2013-04-23 18:45:00,
2013-04-23 14:50:00,47.5,41.3,30.27,NNE,22,0.0,86.5,79,0.60,,,0.00,VWS V14.01,2013-04-23 18:50:00,
2013-04-23 14:55:00,47.4,41.3,30.26,North,10,0.0,86.5,79,0.60,,,0.00,VWS V14.01,2013-04-23 18:55:00,
2013-04-23 15:00:00,47.6,41.5,30.26,North,10,0.0,86.5,79,0.60,,,0.00,VWS V14.01,2013-04-23 19:00:00,
2013-04-23 15:05:00,48.0,41.5,30.26,North,10,0.0,86.5,78,0.60,,,0.00,VWS V14.01,2013-04-23 19:05:00,
2013-04-23 15:11:00,48.2,41.6,30.26,North,10,0.0,86.5,78,0.60,,,0.00,VWS V14.01,2013-04-23 19:11:00,
2013-04-23 15:16:00,48.3,41.5,30.26,North,359,0.0,86.5,77,0.60,,,0.00,VWS V14.01,2013-04-23 19:16:00,
2013-04-23 15:21:00,48.2,41.4,30.26,NE,51,0.0,86.5,77,0.60,,,0.00,VWS V14.01,2013-04-23 19:21:00,
2013-04-23 15:26:00,48.3,41.2,30.25,North,350,8.7,86.5,76,0.60,,,0.00,VWS V14.01,2013-04-23 19:26:00,
2013-04-23 15:31:00,48.3,41.6,30.25,North,1,0.0,86.5,77,0.60,,,0.00,VWS V14.01,2013-04-23 19:31:00,
2013-04-23 15:37:00,48.7,41.5,30.25,NE,41,0.0,86.5,76,0.60,,,0.00,VWS V14.01,2013-04-23 19:37:00,
2013-04-23 15:42:00,49.1,41.5,30.25,North,359,5.2,86.5,75,0.60,,,0.00,VWS V14.01,2013-04-23 19:42:00,
2013-04-23 15:47:00,49.1,41.3,30.25,ENE,76,3.4,86.5,74,0.60,,,0.00,VWS V14.01,2013-04-23 19:47:00,
2013-04-23 15:52:00,49.1,41.3,30.25,NNE,30,6.2,86.5,74,0.60,,,0.00,VWS V14.01,2013-04-23 19:52:00,
2013-04-23 15:57:00,48.8,41.2,30.25,NE,56,4.2,86.5,75,0.60,,,0.00,VWS V14.01,2013-04-23 19:57:00,
2013-04-23 16:03:00,49.2,41.2,30.24,NNE,17,3.1,86.5,74,0.60,,,0.00,VWS V14.01,2013-04-23 20:03:00,
2013-04-23 16:08:00,49.5,41.7,30.24,NE,35,2.8,86.5,74,0.60,,,0.00,VWS V14.01,2013-04-23 20:08:00,
2013-04-23 16:13:00,50.1,41.5,30.24,ENE,60,0.0,86.5,72,0.60,,,0.00,VWS V14.01,2013-04-23 20:13:00,
2013-04-23 16:18:00,50.7,41.8,30.24,NNE,22,2.9,86.5,71,0.60,,,0.00,VWS V14.01,2013-04-23 20:18:00,
2013-04-23 16:23:00,51.1,41.7,30.24,NE,49,4.2,86.5,70,0.60,,,0.00,VWS V14.01,2013-04-23 20:23:00,
2013-04-23 16:29:00,51.2,41.6,30.24,ENE,59,6.6,86.5,70,0.60,,,0.00,VWS V14.01,2013-04-23 20:29:00,
2013-04-23 16:34:00,51.1,41.2,30.24,NE,55,0.0,86.5,69,0.60,,,0.00,VWS V14.01,2013-04-23 20:34:00,
2013-04-23 16:39:00,51.3,41.7,30.24,NE,55,0.0,86.5,70,0.60,,,0.00,VWS V14.01,2013-04-23 20:39:00,
2013-04-23 16:44:00,52.3,41.8,30.24,ESE,120,0.0,86.5,67,0.60,,,0.00,VWS V14.01,2013-04-23 20:44:00,
2013-04-23 16:49:00,52.9,41.8,30.24,NE,45,3.2,86.5,66,0.60,,,0.00,VWS V14.01,2013-04-23 20:49:00,
2013-04-23 16:55:00,53.2,42.3,30.23,ESE,104,0.0,86.5,66,0.60,,,0.00,VWS V14.01,2013-04-23 20:55:00,
2013-04-23 17:00:00,53.3,42.2,30.23,East,84,2.9,86.5,66,0.60,,,0.00,VWS V14.01,2013-04-23 21:00:00,
2013-04-23 17:05:00,52.8,41.6,30.23,NNE,17,4.3,86.5,66,0.60,,,0.00,VWS V14.01,2013-04-23 21:05:00,
2013-04-23 17:10:00,52.8,41.6,30.23,ENE,65,0.0,86.5,66,0.60,,,0.00,VWS V14.01,2013-04-23 21:10:00,
2013-04-23 17:15:00,52.6,41.9,30.24,ENE,72,0.0,86.5,67,0.60,,,0.00,VWS V14.01,2013-04-23 21:15:00,
2013-04-23 17:20:00,52.4,41.8,30.24,North,10,0.0,86.5,67,0.60,,,0.00,VWS V14.01,2013-04-23 21:20:00,
2013-04-23 17:26:00,51.7,41.8,30.23,North,10,0.0,86.5,69,0.60,,,0.00,VWS V14.01,2013-04-23 21:26:00,
2013-04-23 17:31:00,51.4,41.8,30.23,NNE,24,0.0,86.5,70,0.60,,,0.00,VWS V14.01,2013-04-23 21:31:00,
2013-04-23 17:36:00,51.3,41.9,30.23,NNE,24,0.0,86.5,70,0.60,,,0.00,VWS V14.01,2013-04-23 21:36:00,
2013-04-23 17:41:00,51.6,42.1,30.23,NE,53,0.0,86.5,70,0.60,,,0.00,VWS V14.01,2013-04-23 21:41:00,
2013-04-23 17:46:00,52.3,42.3,30.22,NE,53,0.0,86.5,69,0.60,,,0.00,VWS V14.01,2013-04-23 21:46:00,
2013-04-23 17:52:00,53.0,42.3,30.22,NE,53,0.0,86.5,67,0.60,,,0.00,VWS V14.01,2013-04-23 21:52:00,
2013-04-23 17:57:00,53.2,42.5,30.22,NE,53,0.0,86.5,67,0.60,,,0.00,VWS V14.01,2013-04-23 21:57:00,
2013-04-23 18:02:00,52.9,42.2,30.22,NNE,21,0.0,86.5,67,0.60,,,0.00,VWS V14.01,2013-04-23 22:02:00,
2013-04-23 18:07:00,52.3,42.4,30.21,SE,138,0.0,86.5,69,0.60,,,0.00,VWS V14.01,2013-04-23 22:07:00,
2013-04-23 18:12:00,52.2,42.2,30.21,SE,138,0.0,86.5,69,0.60,,,0.00,VWS V14.01,2013-04-23 22:12:00,
2013-04-23 18:18:00,52.4,42.5,30.20,NNE,27,0.0,86.5,69,0.60,,,0.00,VWS V14.01,2013-04-23 22:18:00,
2013-04-23 18:23:00,52.8,42.8,30.20,NE,42,0.0,86.5,69,0.60,,,0.00,VWS V14.01,2013-04-23 22:23:00,
2013-04-23 18:28:00,53.0,42.5,30.20,East,100,0.0,86.5,68,0.60,,,0.00,VWS V14.01,2013-04-23 22:28:00,
2013-04-23 18:33:00,53.3,42.5,30.20,NNE,32,0.0,86.5,67,0.60,,,0.00,VWS V14.01,2013-04-23 22:33:00,
2013-04-23 18:38:00,52.8,42.3,30.19,North,6,0.0,86.5,68,0.60,,,0.00,VWS V14.01,2013-04-23 22:38:00,
2013-04-23 18:44:00,52.3,42.0,30.19,NE,45,4.9,86.5,68,0.60,,,0.00,VWS V14.01,2013-04-23 22:44:00,
2013-04-23 18:49:00,51.9,42.3,30.19,East,91,3.3,86.5,70,0.60,,,0.00,VWS V14.01,2013-04-23 22:49:00,
2013-04-23 18:54:00,51.7,42.2,30.19,ENE,59,4.7,86.5,70,0.60,,,0.00,VWS V14.01,2013-04-23 22:54:00,
2013-04-23 18:59:00,51.6,42.3,30.19,NNE,25,0.0,86.5,70,0.60,,,0.00,VWS V14.01,2013-04-23 22:59:00,
2013-04-23 19:04:00,51.3,42.2,30.19,NNE,15,0.0,86.5,71,0.60,,,0.00,VWS V14.01,2013-04-23 23:04:00,
2013-04-23 19:10:00,51.2,42.1,30.19,WNW,292,0.0,86.5,71,0.60,,,0.00,VWS V14.01,2013-04-23 23:10:00,
2013-04-23 19:15:00,51.0,42.0,30.19,NW,321,3.0,86.5,71,0.60,,,0.00,VWS V14.01,2013-04-23 23:15:00,
2013-04-23 19:20:00,50.6,42.3,30.19,NW,321,0.0,86.5,73,0.60,,,0.00,VWS V14.01,2013-04-23 23:20:00,
2013-04-23 19:26:00,50.0,42.3,30.20,North,354,5.0,86.5,75,0.60,,,0.00,VWS V14.01,2013-04-23 23:26:00,
2013-04-23 19:32:00,49.6,42.2,30.20,North,7,5.2,86.5,76,0.60,,,0.00,VWS V14.01,2013-04-23 23:32:00,
2013-04-23 19:37:00,49.3,42.3,30.19,NNE,22,3.1,86.5,77,0.60,,,0.00,VWS V14.01,2013-04-23 23:37:00,
2013-04-23 19:42:00,49.2,42.2,30.19,North,359,5.3,86.5,77,0.60,,,0.00,VWS V14.01,2013-04-23 23:42:00,
2013-04-23 19:48:00,49.2,42.2,30.19,NNE,18,0.0,86.5,77,0.60,,,0.00,VWS V14.01,2013-04-23 23:48:00,
2013-04-23 19:53:00,49.0,42.2,30.19,NNE,18,0.0,86.5,77,0.60,,,0.00,VWS V14.01,2013-04-23 23:53:00,
2013-04-23 20:02:00,48.8,42.1,30.19,NNE,18,0.0,86.5,78,0.60,,,0.00,VWS V14.01,2013-04-24 00:02:00,
2013-04-23 20:07:00,48.7,42.2,30.19,North,4,0.0,86.5,78,0.60,,,0.00,VWS V14.01,2013-04-24 00:07:00,
2013-04-23 20:13:00,48.4,42.1,30.18,North,4,0.0,86.5,79,0.60,,,0.00,VWS V14.01,2013-04-24 00:13:00,
2013-04-23 20:19:00,48.3,42.1,30.18,North,4,0.0,86.5,79,0.60,,,0.00,VWS V14.01,2013-04-24 00:19:00,
2013-04-23 20:24:00,48.2,42.1,30.17,NNE,22,0.0,86.5,79,0.60,,,0.00,VWS V14.01,2013-04-24 00:24:00,
2013-04-23 20:29:00,48.1,42.2,30.17,NE,42,0.0,86.5,80,0.60,,,0.00,VWS V14.01,2013-04-24 00:29:00,
2013-04-23 20:35:00,48.0,42.1,30.16,East,91,3.5,86.5,80,0.60,,,0.00,VWS V14.01,2013-04-24 00:35:00,
2013-04-23 20:41:00,47.9,42.1,30.16,NNE,30,0.0,86.5,80,0.60,,,0.00,VWS V14.01,2013-04-24 00:41:00,
2013-04-23 20:46:00,47.9,42.2,30.16,NE,51,0.0,86.5,80,0.60,,,0.00,VWS V14.01,2013-04-24 00:46:00,
2013-04-23 20:51:00,47.7,42.1,30.16,ENE,75,0.0,86.5,81,0.60,,,0.00,VWS V14.01,2013-04-24 00:51:00,
2013-04-23 20:57:00,47.6,41.9,30.16,East,82,0.0,86.5,81,0.60,,,0.00,VWS V14.01,2013-04-24 00:57:00,
2013-04-23 21:03:00,47.5,42.1,30.16,ENE,58,0.0,86.5,81,0.60,,,0.00,VWS V14.01,2013-04-24 01:03:00,
2013-04-23 21:08:00,47.2,42.1,30.15,NE,37,0.0,86.5,82,0.60,,,0.00,VWS V14.01,2013-04-24 01:08:00,
2013-04-23 21:14:00,47.0,42.2,30.15,NE,45,3.2,86.5,83,0.60,,,0.00,VWS V14.01,2013-04-24 01:14:00,
2013-04-23 21:19:00,46.8,42.0,30.15,NE,55,7.0,86.5,83,0.60,,,0.00,VWS V14.01,2013-04-24 01:19:00,
2013-04-23 21:25:00,46.6,42.1,30.15,NE,39,0.0,86.5,84,0.60,,,0.00,VWS V14.01,2013-04-24 01:25:00,
2013-04-23 21:31:00,46.4,41.8,30.15,NE,41,0.0,86.5,84,0.60,,,0.00,VWS V14.01,2013-04-24 01:31:00,
2013-04-23 21:36:00,46.2,41.9,30.15,NE,46,3.0,86.5,85,0.60,,,0.00,VWS V14.01,2013-04-24 01:36:00,
2013-04-23 21:42:00,46.0,41.7,30.15,NE,41,0.0,86.5,85,0.60,,,0.00,VWS V14.01,2013-04-24 01:42:00,
2013-04-23 21:48:00,45.9,41.8,30.15,NE,34,0.0,86.5,85,0.60,,,0.00,VWS V14.01,2013-04-24 01:48:00,
2013-04-23 21:53:00,45.7,41.8,30.15,North,359,0.0,86.5,86,0.60,,,0.00,VWS V14.01,2013-04-24 01:53:00,
2013-04-23 21:59:00,45.6,41.6,30.15,East,84,4.2,86.5,86,0.60,,,0.00,VWS V14.01,2013-04-24 01:59:00,
2013-04-23 22:04:00,45.5,41.6,30.14,NE,34,0.0,86.5,86,0.60,,,0.00,VWS V14.01,2013-04-24 02:04:00,
2013-04-23 22:10:00,45.4,41.5,30.14,NE,34,0.0,86.5,86,0.60,,,0.00,VWS V14.01,2013-04-24 02:10:00,
2013-04-23 22:15:00,45.3,41.5,30.14,East,101,0.0,86.5,86,0.60,,,0.00,VWS V14.01,2013-04-24 02:15:00,
2013-04-23 22:22:00,45.1,41.7,30.14,North,359,4.5,86.5,88,0.60,,,0.00,VWS V14.01,2013-04-24 02:22:00,
2013-04-23 22:27:00,44.9,41.6,30.14,NNE,24,0.0,86.5,88,0.60,,,0.00,VWS V14.01,2013-04-24 02:27:00,
2013-04-23 22:32:00,44.7,41.6,30.14,NNE,17,0.0,86.5,89,0.60,,,0.00,VWS V14.01,2013-04-24 02:32:00,
2013-04-23 22:38:00,44.6,41.6,30.14,North,359,0.0,86.5,89,0.60,,,0.00,VWS V14.01,2013-04-24 02:38:00,
2013-04-23 22:43:00,44.5,41.6,30.14,North,359,0.0,86.5,90,0.60,,,0.00,VWS V14.01,2013-04-24 02:43:00,
2013-04-23 22:49:00,44.3,41.6,30.14,North,359,3.0,86.5,90,0.60,,,0.00,VWS V14.01,2013-04-24 02:49:00,
2013-04-23 22:56:00,44.2,41.6,30.13,North,7,0.0,86.5,90,0.60,,,0.00,VWS V14.01,2013-04-24 02:56:00,
2013-04-23 23:01:00,43.9,41.5,30.13,NNE,20,4.3,86.5,91,0.60,,,0.00,VWS V14.01,2013-04-24 03:01:00,
2013-04-23 23:07:00,43.8,41.4,30.14,NNE,15,5.2,86.5,91,0.60,,,0.00,VWS V14.01,2013-04-24 03:07:00,
2013-04-23 23:12:00,43.8,41.5,30.13,East,79,0.0,86.5,91,0.60,,,0.00,VWS V14.01,2013-04-24 03:12:00,
2013-04-23 23:17:00,43.7,41.4,30.13,NNE,18,3.2,86.5,92,0.60,,,0.00,VWS V14.01,2013-04-24 03:17:00,
2013-04-23 23:22:00,43.7,41.4,30.13,ENE,63,0.0,86.5,92,0.60,,,0.00,VWS V14.01,2013-04-24 03:22:00,
2013-04-23 23:28:00,43.8,41.5,30.12,NE,53,0.0,86.5,92,0.60,,,0.00,VWS V14.01,2013-04-24 03:28:00,
2013-04-23 23:33:00,43.7,41.4,30.12,NE,51,0.0,86.5,92,0.60,,,0.00,VWS V14.01,2013-04-24 03:33:00,
2013-04-23 23:38:00,43.7,41.4,30.12,NNE,21,0.0,86.5,92,0.60,,,0.00,VWS V14.01,2013-04-24 03:38:00,
2013-04-23 23:44:00,43.5,41.3,30.12,NNW,345,5.2,86.5,92,0.60,,,0.00,VWS V14.01,2013-04-24 03:44:00,
2013-04-23 23:49:00,43.4,41.3,30.12,North,359,4.7,86.5,92,0.60,,,0.00,VWS V14.01,2013-04-24 03:49:00,
2013-04-23 23:54:00,43.4,41.3,30.11,NNE,27,7.8,86.5,92,0.60,,,0.00,VWS V14.01,2013-04-24 03:54:00,